Volver al catálogo

YUNYAO-1 37

ActivoMeteoSSO
NORAD 62729·PAYLOAD·🇨🇳 China
Este nombre de satélite aún no ha sido confirmado por fuentes oficiales.

Lanzado Jan 20, 2025 desde Jiuquan Satellite Launch Center

Loading…

Próximos Pases (próximas 24 horas)

TLE

ActualizadoSource: Space-Track

Época: Sep 14, 2026, 23:24 UTC

1 62729U 25013A   26257.97568354  .00037021  00000-0  92163-3 0  9993
2 62729  97.6396  80.2189 0007604 337.3382  22.7527 15.40140935 91751

Sigue YUNYAO-1 37 en tiempo real con AllMySat

Download on the App Store